Location: Gilevgi
(36.8751°N, 30.0581°E)
Time: 21:40:32
(UTC+00:00)

Cosmos 1417 Rocket - Visible Passes

Search period start: 16 March 2026 00:00
Search period end: 26 March 2026 00:00
Orbit: 951 x 998 km, 83.0° (Epoch: 16 March)

Date Brightness Start Highest point End Pass type
(mag) Time Alt. Az. Time Alt. Az. Time Alt. Az.
16 Mar 5.2 16:37:15 10° NNE 16:42:41 31° ENE 16:48:02 10° SE visible
16 Mar 6.0 18:22:30 10° NNW 18:27:56 33° W 18:33:19 10° SSW visible
17 Mar 4.5 17:01:47 10° N 17:07:53 59° E 17:13:54 10° SSE visible
17 Mar 7.0 18:48:42 10° NW 18:52:35 18° W 18:56:27 10° WSW visible
18 Mar 4.6 17:26:44 10° N 17:32:54 76° W 17:39:00 10° S visible
19 Mar 5.8 17:52:04 10° NNW 17:57:46 40° W 18:03:23 10° SSW visible
20 Mar 4.7 16:31:37 10° N 16:37:35 48° E 16:43:27 10° SSE visible
20 Mar 6.8 18:17:59 10° NW 18:22:27 21° W 18:26:54 10° SW visible
21 Mar 4.5 16:56:28 10° N 17:02:39 89° E 17:08:46 10° S visible
21 Mar 7.5 18:46:02 10° WNW 18:46:59 10° W 18:47:57 10° W visible
22 Mar 5.5 17:21:41 10° NNW 17:27:34 49° W 17:33:23 10° SSW visible
23 Mar 6.6 17:47:23 10° NNW 17:52:18 26° W 17:57:12 10° SW visible
24 Mar 7.4 18:14:11 10° NW 18:16:54 13° W 18:19:35 10° WSW visible
25 Mar 5.2 16:51:19 10° NNW 16:57:21 59° W 17:03:19 10° S visible
